This demonstration page uses our WeatherBlox Daily Observations layout. Learn more.

Left ArrowRight Arrow

Hourly Observations for August 11, 2022

Temp ( °F °C ) Dew Point ( °F °C ) Humidity (%) Winds ( mph kmh ) Pressure ( in mb ) Visibility ( mi km ) Precip ( " mm )
12:15 am 00:15 Clear 69 20.5 64 17.7 84 84 SSE 6 9 30.10 1019 10 16 0.00 0.00
12:35 am 00:35 Clear 68 20.1 64 17.7 86 86 SSE 7 11 30.10 1019 10 16 0.00 0.00
12:55 am 00:55 Clear 67 19.7 64 17.7 88 88 SSE 6 9 30.12 1020 10 16 0.00 0.00
1:15 am 01:15 Clear 68 19.8 64 17.6 87 87 SSE 7 11 30.12 1020 10 16 0.00 0.00
1:35 am 01:35 Clear 67 19.5 64 17.5 88 88 SSE 5 7 30.12 1020 10 16 0.00 0.00
1:55 am 01:55 Clear 66 19 63 17.2 89 89 S 5 7 30.11 1020 10 16 0.00 0.00
2:15 am 02:15 Clear 66 19 63 17.2 89 89 S 7 11 30.11 1020 10 16 0.00 0.00
2:35 am 02:35 Partly Cloudy 66 19.1 63 17.3 89 89 S 6 9 30.11 1020 10 16 0.00 0.00
3:15 am 03:15 Partly Cloudy 66 18.7 63 17.1 90 90 SSE 7 11 30.12 1020 10 16 0.00 0.00
3:35 am 03:35 Partly Cloudy 65 18.6 63 17 90 90 S 6 9 30.12 1020 10 16 0.00 0.00
3:55 am 03:55 Clear 65 18.5 62 16.8 90 90 S 6 9 30.12 1020 10 16 0.00 0.00
4:15 am 04:15 Clear 65 18.5 62 16.7 89 89 SSE 6 9 30.12 1020 10 16 0.00 0.00
4:35 am 04:35 Clear 65 18.2 62 16.6 90 90 SSE 6 9 30.11 1020 10 16 0.00 0.00
4:55 am 04:55 Clear 64 17.8 61 16.3 91 91 S 5 7 30.12 1020 10 16 0.00 0.00
5:15 am 05:15 Clear 63 17.3 61 16.1 93 93 S 3 6 30.11 1020 10 16 0.00 0.00
5:35 am 05:35 Clear 64 17.5 61 16 91 91 S 5 7 30.11 1020 10 16 0.00 0.00
5:55 am 05:55 Clear 63 17.2 60 15.8 91 91 S 3 6 30.11 1020 10 16 0.00 0.00
6:15 am 06:15 Clear 63 17.2 60 15.6 90 90 S 6 9 30.12 1020 10 16 0.00 0.00
6:35 am 06:35 Clear 63 17 60 15.5 91 91 S 3 6 30.12 1020 10 16 0.00 0.00
6:55 am 06:55 Sunny 62 16.8 60 15.5 92 92 S 6 9 30.13 1020 10 16 0.00 0.00
7:15 am 07:15 Sunny 63 17 60 15.5 91 91 S 5 7 30.13 1020 10 16 0.00 0.00
7:30 am 07:30 Sunny 64 17.7 61 15.9 89 89 S 6 9 30.14 1021 10 16 0.00 0.00
7:55 am 07:55 Sunny 65 18.5 61 16.2 86 86 SSE 6 9 30.13 1020 10 16 0.00 0.00
8:15 am 08:15 Sunny 67 19.2 62 16.6 85 85 S 7 11 30.12 1020 10 16 0.00 0.00
8:35 am 08:35 Sunny 69 20.3 62 16.8 80 80 S 6 9 30.12 1020 10 16 0.00 0.00
8:55 am 08:55 Sunny 71 21.6 63 17.1 76 76 S 8 13 30.11 1020 10 16 0.00 0.00
9:15 am 09:15 Sunny 73 22.9 62 16.7 68 68 S 9 15 30.10 1019 10 16 0.00 0.00
9:35 am 09:35 Sunny 75 24.1 60 15.3 58 58 SSW 10 17 30.09 1019 10 16 0.00 0.00
9:55 am 09:55 Sunny 76 24.7 60 15.8 58 58 S 12 19 30.09 1019 10 16 0.00 0.00
10:15 am 10:15 Sunny 78 25.6 62 16.6 58 58 S 9 15 30.08 1019 10 16 0.00 0.00
10:35 am 10:35 Sunny 80 26.4 62 16.5 55 55 S 12 19 30.07 1018 10 16 0.00 0.00
10:55 am 10:55 Sunny 80 26.9 61 16.3 52 52 S 12 19 30.07 1018 10 16 0.00 0.00
11:15 am 11:15 Sunny 81 27.1 61 16.1 51 51 S 13 20 30.07 1018 10 16 0.00 0.00
11:35 am 11:35 Sunny 82 28 62 16.4 49 49 SSE 9 15 30.05 1018 10 16 0.00 0.00
11:55 am 11:55 Sunny 83 28.3 62 16.5 49 49 S 9 15 30.05 1018 10 16 0.00 0.00
12:15 pm 12:15 Sunny 83 28.6 62 16.4 48 48 SSE 13 20 30.05 1018 10 16 0.00 0.00
12:35 pm 12:35 Sunny 83 28.6 61 16.1 47 47 SSE 10 17 30.05 1018 10 16 0.00 0.00
12:55 pm 12:55 Sunny 83 28.3 62 16.8 50 50 S 9 15 30.04 1017 10 16 0.00 0.00
1:15 pm 13:15 Sunny 85 29.6 62 16.9 46 46 SSE 9 15 30.02 1017 10 16 0.00 0.00
1:35 pm 13:35 Sunny 87 30.5 62 16.5 43 43 S 10 17 30.00 1016 10 16 0.00 0.00
1:55 pm 13:55 Sunny 88 31.2 63 17 43 43 S 10 17 30.00 1016 10 16 0.00 0.00
2:15 pm 14:15 Sunny 89 31.5 61 15.9 39 39 SSE 9 15 30.00 1016 10 16 0.00 0.00
2:35 pm 14:35 Sunny 88 31.3 60 15.4 38 38 S 9 15 29.99 1015 10 16 0.00 0.00
2:55 pm 14:55 Sunny 89 31.9 62 16.9 41 41 SSE 8 13 29.98 1015 10 16 0.00 0.00
3:15 pm 15:15 Sunny 90 32.2 62 16.8 40 40 SSE 8 13 29.98 1015 10 16 0.00 0.00
3:35 pm 15:35 Sunny 90 32 62 16.6 40 40 SE 9 15 29.97 1015 10 16 0.00 0.00
3:55 pm 15:55 Sunny 90 32.1 65 18.1 43 43 SE 10 17 29.97 1015 10 16 0.00 0.00
4:15 pm 16:15 Sunny 90 32.4 64 17.7 42 42 SSE 12 19 29.96 1014 10 16 0.00 0.00
4:35 pm 16:35 Sunny 91 32.5 63 17.4 41 41 SE 9 15 29.96 1014 10 16 0.00 0.00
4:55 pm 16:55 Sunny 90 32.4 64 17.7 42 42 SE 9 15 29.95 1014 10 16 0.00 0.00
5:15 pm 17:15 Sunny 90 32.2 63 17.4 41 41 SE 9 15 29.95 1014 10 16 0.00 0.00
5:35 pm 17:35 Sunny 90 32.1 64 17.7 42 42 SSE 9 15 29.95 1014 10 16 0.00 0.00
5:55 pm 17:55 Sunny 90 32 63 17.4 42 42 SE 7 11 29.95 1014 10 16 0.00 0.00
6:15 pm 18:15 Sunny 89 31.4 65 18.3 46 46 ESE 9 15 29.96 1014 10 16 0.00 0.00
6:35 pm 18:35 Sunny 87 30.4 67 19.5 52 52 ESE 9 15 29.95 1014 10 16 0.00 0.00
6:55 pm 18:55 Sunny 85 29.7 66 19.1 53 53 SE 9 15 29.96 1015 10 16 0.00 0.00
7:15 pm 19:15 Sunny 84 28.8 66 18.8 55 55 SE 7 11 29.97 1015 10 16 0.00 0.00
7:35 pm 19:35 Sunny 82 27.9 65 18.1 55 55 SE 8 13 29.97 1015 10 16 0.00 0.00
7:55 pm 19:55 Sunny 80 26.8 63 17.2 56 56 SE 8 13 29.98 1015 10 16 0.00 0.00
8:15 pm 20:15 Sunny 78 25.3 63 17.2 61 61 SE 8 13 29.99 1016 10 16 0.00 0.00
8:35 pm 20:35 Sunny 75 23.7 63 17.3 67 67 SE 7 11 30.01 1016 10 16 0.00 0.00
8:55 pm 20:55 Clear 73 22.8 63 17 70 70 SE 8 13 30.02 1016 10 16 0.00 0.00
9:15 pm 21:15 Clear 71 21.4 63 17 76 76 SE 9 15 30.03 1017 10 16 0.00 0.00
9:35 pm 21:35 Clear 70 21.2 61 15.9 72 72 SSE 8 13 30.03 1017 10 16 0.00 0.00
9:55 pm 21:55 Clear 70 21.3 60 15.5 70 70 SE 8 13 30.04 1017 10 16 0.00 0.00
10:15 pm 22:15 Clear 69 20.7 59 15 70 70 SE 9 15 30.04 1017 10 16 0.00 0.00
10:35 pm 22:35 Clear 69 20.6 58 14.6 68 68 SSE 8 13 30.05 1018 10 16 0.00 0.00
10:55 pm 22:55 Clear 67 19.5 58 14.3 72 72 SE 7 11 30.06 1018 10 16 0.00 0.00
11:15 pm 23:15 Clear 65 18.3 58 14.5 79 79 SSE 8 13 30.07 1018 10 16 0.00 0.00
11:35 pm 23:35 Clear 65 18.1 58 14.5 80 80 SSE 7 11 30.07 1018 10 16 0.00 0.00
11:55 pm 23:55 Clear 64 18 58 14.5 80 80 SSE 7 11 30.07 1018 10 16 0.00 0.00

Powered by AerisWeather